Osoyoos, British Columbia

9:13 PM PDT on August 18, 2017 (GMT -0700)
Osoyoos

Weather History for CWYY - July, 2013

Change the Weather History Date:

Tuesday, July 9, 2013

  Actual Average (KOMK) Record (KOMK)
Temperature  
Mean Temperature 74 °F 71 °F  
Max Temperature 93 °F 87 °F 102 °F (2015)
Min Temperature 56 °F 56 °F 41 °F (1948)
Degree Days  
Heating Degree Days 0 1  
Month to date heating degree days 9  
Since 1 June heating degree days 78  
Since 1 July heating degree days 9  
Cooling Degree Days 10 7  
Month to date cooling degree days 54  
Year to date cooling degree days 161  
Since 1 June cooling degree days 138  
Growing Degree Days 24 (Base 50)    
Moisture  
Dew Point 52 °F    
Average Humidity 50    
Maximum Humidity 91    
Minimum Humidity 12    
Precipitation  
Precipitation 0.00 in 0.03 in 0.65 in (1974)
Month to date precipitation 0.27  
Year to date precipitation 8.25  
Sea Level Pressure  
Sea Level Pressure 29.99 in    
Wind  
Wind Speed 3 mph ()    
Max Wind Speed 15 mph    
Max Gust Speed 22 mph    
T = Trace of Precipitation, MM = Missing Value Source: Averaged Metar Reports

Daily Weather History Graph

Daily Weather History Graph

Search for Another Location

Airport or City:

Trip Planner

Search our weather history database for the weather conditions in past years. The results will help you decide how hot, cold, wet, or windy it might be!

Date:

Astronomy

Jul. 09, 2013 Rise Set
Actual Time 5:03 AM PDT 9:01 PM PDT
Civil Twilight 4:22 AM PDT 9:42 PM PDT
Nautical Twilight 3:24 AM PDT 10:40 PM PDT
Astronomical Twilight 1:46 AM PDT 12:15 AM PDT
Moon 6:45 AM PDT (7/9) 9:26 PM PDT (7/9)
Length of Visible Light 17h 20m
Length of Day
15h 57m
New Moon, 2% of the Moon is Illuminated
Jul 9
New Moon
Jul 15
First Quarter
Jul 22
Full
Jul 29
Last Quarter
Aug 6
New

Hourly Weather History & Observations

Time (PDT) Temp. Heat Index Dew Point Humidity Pressure Visibility Wind Dir Wind Speed Gust Speed Precip Events Conditions
12:00 AM 63.3 °F - 56.5 °F 78% 30.02 in - NE 1.2 mph - N/A   Unknown
1:00 AM 62.8 °F - 56.3 °F 79% 30.02 in - Calm Calm - N/A   Unknown
2:00 AM 60.4 °F - 56.1 °F 86% 30.04 in - ENE 2.3 mph - N/A   Unknown
3:00 AM 59.4 °F - 53.8 °F 82% 30.05 in - ENE 1.2 mph - N/A   Unknown
4:00 AM 57.9 °F - 55.2 °F 91% 30.06 in - ENE 1.2 mph - N/A   Unknown
5:00 AM 57 °F - 54 °F 84% 30.07 in - ENE 1.2 mph - -  
5:00 AM 56.8 °F - 53.6 °F 89% 30.07 in - ENE 1.2 mph - N/A   Unknown
6:00 AM 57.6 °F - 54.0 °F 88% 30.09 in - ENE 1.2 mph - N/A   Unknown
7:00 AM 62.6 °F - 57.0 °F 82% 30.09 in - ENE 1.2 mph - N/A   Unknown
8:00 AM 66.9 °F - 55.2 °F 66% 30.09 in - SW 2.3 mph - N/A   Unknown
9:00 AM 69.8 °F - 54.9 °F 59% 30.08 in - SW 3.5 mph - N/A   Unknown
10:00 AM 75.2 °F - 56.1 °F 51% 30.07 in - South 3.5 mph - N/A   Unknown
11:00 AM 80 °F - 52 °F 27% 30.04 in - SSE 4.6 mph - -  
11:00 AM 80.4 °F - 52.0 °F 37% 30.04 in - SSE 4.6 mph - N/A   Unknown
12:00 PM 84.9 °F - 51.3 °F 31% 30.02 in - SSE 6.9 mph - N/A   Unknown
1:00 PM 86.4 °F - 52.3 °F 31% 30.00 in - SSE 8.1 mph - N/A   Unknown
2:00 PM 89.6 °F - 45.3 °F 21% 29.98 in - SSE 15.0 mph 21.9 mph N/A   Unknown
3:00 PM 90.7 °F - 48.2 °F 23% 29.96 in - SSE 10.4 mph - N/A   Unknown
4:00 PM 91.8 °F - 46.6 °F 21% 29.94 in - SSE 9.2 mph - N/A   Unknown
5:00 PM 92 °F - 46 °F 12% 29.91 in - South 10.4 mph - -  
5:00 PM 91.8 °F - 46.0 °F 21% 29.91 in - South 10.4 mph - N/A   Unknown
6:00 PM 91.8 °F - 45.3 °F 20% 29.90 in - SSE 9.2 mph - N/A   Unknown
7:00 PM 88.0 °F - 46.9 °F 24% 29.88 in - SE 4.6 mph - N/A   Unknown
8:00 PM 83.8 °F - 48.7 °F 29% 29.87 in - East 1.2 mph - N/A   Unknown
9:00 PM 80.6 °F 80.4 °F 54.0 °F 40% 29.87 in - South 2.3 mph - N/A   Unknown
10:00 PM 79.0 °F - 52.2 °F 39% 29.88 in - South 3.5 mph - N/A   Unknown
11:00 PM 74 °F - 55 °F 41% 29.89 in - North 1.2 mph - -  
11:00 PM 74.3 °F - 54.9 °F 51% 29.89 in - North 1.2 mph - N/A   Unknown